MST,Max TemperatureF,Mean TemperatureF,Min TemperatureF,Max Dew PointF,MeanDew PointF,Min DewpointF,Max Humidity, Mean Humidity, Min Humidity, Max Sea Level PressureIn, Mean Sea Level PressureIn, Min Sea Level PressureIn, Max VisibilityMiles, Mean VisibilityMiles, Min VisibilityMiles, Max Wind SpeedMPH, Mean Wind SpeedMPH, Max Gust SpeedMPH,PrecipitationIn, CloudCover, Events, WindDirDegrees
2011-11-1,44,33,22,28,16,9,82,53,24,30.47,30.19,30.03,10,10,10,20,7,31,T,3,,17
2011-11-2,41,28,15,15,12,8,80,54,27,30.64,30.54,30.44,10,10,9,9,3,12,0.00,0,,56
2011-11-3,48,33,18,18,15,12,80,53,26,30.40,30.09,29.80,10,10,10,12,4,15,0.00,0,,44
2011-11-4,56,40,24,32,23,16,100,61,22,29.76,29.64,29.53,10,7,1,22,11,30,0.08,4,Snow,204
2011-11-5,31,28,25,30,24,17,92,80,68,29.90,29.71,29.62,10,7,2,20,15,28,0.01,8,Snow,205
2011-11-6,31,27,23,26,23,16,92,80,68,30.11,29.97,29.82,10,10,5,16,8,24,T,7,Snow,216
2011-11-7,35,30,25,26,24,21,92,77,61,30.30,30.19,30.10,10,10,7,12,4,14,0.00,6,,213
2011-11-8,32,25,18,22,21,15,92,78,63,30.61,30.39,30.28,10,10,10,13,5,17,0.00,6,,202
2011-11-9,38,26,13,21,16,10,92,72,52,30.72,30.64,30.61,10,10,10,7,4,10,0.00,0,,53
2011-11-10,41,28,15,21,18,11,88,65,41,30.58,30.41,30.25,10,10,10,8,4,9,0.00,0,,57
2011-11-11,44,30,15,22,16,12,92,61,29,30.25,30.00,29.62,10,10,6,16,5,22,0.00,2,,82
2011-11-12,42,35,27,36,27,15,100,65,29,29.76,29.62,29.50,10,8,0,30,16,39,0.32,7,Fog-Snow,213
2011-11-13,41,35,29,32,25,20,85,70,55,29.78,29.71,29.62,10,10,10,29,16,37,0.00,5,,217
2011-11-14,44,35,26,24,21,17,81,57,33,29.82,29.74,29.65,10,10,10,26,14,36,0.00,0,,220
2011-11-15,40,29,18,22,18,9,88,64,40,30.21,30.00,29.81,10,10,10,26,9,35,0.00,1,,207
2011-11-16,33,21,9,18,8,0,80,55,29,30.49,30.38,30.26,10,10,10,16,4,24,0.00,2,,45
2011-11-17,46,36,26,36,29,18,100,75,49,30.20,29.84,29.58,10,9,1,30,12,43,0.03,8,Rain-Snow,195
2011-11-18,38,33,28,37,28,23,100,86,72,29.65,29.57,29.48,10,10,2,26,13,36,0.04,8,Rain-Snow,211
2011-11-19,30,25,20,23,17,11,85,67,49,30.04,29.82,29.53,10,10,10,28,14,36,0.00,5,,207
2011-11-20,32,21,10,27,16,6,92,73,53,30.12,30.08,30.04,10,10,9,10,4,12,T,4,,49
2011-11-21,41,32,22,31,26,21,100,83,65,30.20,30.08,30.02,10,8,2,20,7,25,T,5,Snow,179
2011-11-22,42,36,30,31,28,26,85,71,57,30.24,30.21,30.18,10,10,10,17,10,24,0.00,6,,192
2011-11-23,52,39,25,29,25,22,92,64,35,30.19,30.07,29.92,10,10,10,16,5,23,0.00,0,,123
2011-11-24,53,39,25,28,25,21,88,62,35,29.97,29.90,29.82,10,10,10,18,8,23,0.00,1,,166
2011-11-25,43,31,19,31,20,1,82,53,23,30.57,30.05,29.83,10,9,0,32,14,43,0.01,3,Fog-Snow,271
2011-11-26,33,23,12,16,11,7,84,61,38,30.86,30.79,30.63,10,10,10,7,3,8,0.00,0,,41
2011-11-27,36,25,14,18,13,9,80,59,38,30.79,30.62,30.44,10,10,10,8,3,10,0.00,0,,49
2011-11-28,44,33,21,21,18,14,88,61,33,30.48,30.44,30.40,10,10,10,9,3,12,0.00,1,,150
2011-11-29,40,31,22,31,27,19,92,81,70,30.50,30.38,30.14,10,10,8,8,2,10,0.00,6,,55
2011-11-30,39,33,26,31,25,12,92,73,53,30.42,30.10,29.97,10,9,2,18,8,29,0.01,6,Snow,283